Change the Weather History Date:

Sunday, November 11, 2012

  Actual Average Record
Temperature  
Mean Temperature 57 °F -  
Max Temperature 73 °F 63 °F 82 °F (2002)
Min Temperature 41 °F 42 °F 32 °F (1996)
Degree Days  
Heating Degree Days 8    
Growing Degree Days 7 (Base 50)    
Moisture  
Dew Point 46 °F    
Average Humidity 79    
Maximum Humidity 93    
Minimum Humidity 49    
Precipitation  
Precipitation 0.00 in - - ()
Sea Level Pressure  
Sea Level Pressure 30.46 in    
Wind  
Wind Speed 1 mph (ESE)    
Max Wind Speed 7 mph    
Max Gust Speed -    
Visibility 7 miles    
Events Fog    
Averages and records for this station are not official NWS values.
T = Trace of Precipitation, MM = Missing Value Source: NWS Daily Summary

Daily Weather History Graph

Daily Weather History Graph

Search for Another Location

Airport or City:

Trip Planner

Search our weather history database for the weather conditions in past years. The results will help you decide how hot, cold, wet, or windy it might be!

Date:

Astronomy

Nov. 11, 2012 Rise Set
Actual Time 6:40 AM EST 5:07 PM EST
Civil Twilight 6:13 AM EST 5:33 PM EST
Nautical Twilight 5:43 AM EST 6:03 PM EST
Astronomical Twilight 5:13 AM EST 6:33 PM EST
Moon 3:57 AM EST (11/11) 3:25 PM EST (11/11)
Length of Visible Light 11h 20m
Length of Day
10h 26m
Waning Crescent, 7% of the Moon is Illuminated
Nov 11
Waning Crescent
Nov 13
New
Nov 20
First Quarter
Nov 28
Full
Dec 6
Last Quarter

Hourly Weather History & Observations

Time (EST) Temp. Dew Point Humidity Pressure Visibility Wind Dir Wind Speed Gust Speed Precip Events Conditions
12:56 AM 44.1 °F 41.0 °F 89% 30.43 in 9.0 mi Calm Calm - N/A   Clear
1:56 AM 44.1 °F 41.0 °F 89% 30.43 in 8.0 mi Calm Calm - N/A   Clear
2:32 AM 42.8 °F 39.2 °F 87% 30.42 in 1.5 mi Calm Calm - N/A   Clear
2:40 AM 42.8 °F 39.2 °F 87% 30.42 in 1.5 mi Calm Calm - N/A   Scattered Clouds
2:56 AM 43.0 °F 39.9 °F 89% 30.43 in 7.0 mi Calm Calm - N/A   Partly Cloudy
3:56 AM 42.1 °F 39.0 °F 89% 30.44 in 6.0 mi Calm Calm - N/A   Clear
4:56 AM 42.1 °F 37.9 °F 85% 30.45 in 6.0 mi Calm Calm - N/A   Clear
5:16 AM 42.8 °F 39.2 °F 87% 30.44 in 6.0 mi Calm Calm - N/A   Mostly Cloudy
5:56 AM 41.0 °F 37.9 °F 89% 30.46 in 0.5 mi Calm Calm - N/A Fog Fog
6:28 AM 41.0 °F 39.2 °F 93% 30.46 in 1.2 mi Calm Calm - N/A   Scattered Clouds
6:38 AM 41.0 °F 37.4 °F 87% 30.46 in 1.0 mi Calm Calm - N/A   Mist
6:43 AM 41.0 °F 37.4 °F 87% 30.46 in 2.5 mi Calm Calm - N/A   Clear
6:56 AM 41.0 °F 37.9 °F 89% 30.47 in 5.0 mi Calm Calm - N/A   Clear
7:56 AM 48.9 °F 45.0 °F 86% 30.50 in 6.0 mi Calm Calm - N/A   Clear
8:56 AM 57.9 °F 51.1 °F 78% 30.51 in 10.0 mi Calm Calm - N/A   Clear
9:56 AM 64.0 °F 53.1 °F 67% 30.52 in 10.0 mi East 3.5 mph - N/A   Clear
10:56 AM 69.1 °F 55.0 °F 61% 30.51 in 10.0 mi Calm Calm - N/A   Partly Cloudy
11:56 AM 71.1 °F 54.0 °F 55% 30.50 in 10.0 mi East 5.8 mph - N/A   Scattered Clouds
12:56 PM 73.0 °F 53.1 °F 49% 30.47 in 10.0 mi ESE 5.8 mph - N/A   Clear
1:56 PM 72.0 °F 53.1 °F 51% 30.45 in 10.0 mi ESE 6.9 mph - N/A   Clear
2:56 PM 73.0 °F 54.0 °F 51% 30.46 in 10.0 mi Variable 5.8 mph - N/A   Mostly Cloudy
3:56 PM 71.1 °F 53.1 °F 53% 30.47 in 10.0 mi SSE 4.6 mph - N/A   Clear
4:56 PM 64.9 °F 54.0 °F 68% 30.47 in 10.0 mi SE 5.8 mph - N/A   Clear
5:56 PM 61.0 °F 53.1 °F 75% 30.47 in 10.0 mi SE 4.6 mph - N/A   Clear
6:56 PM 60.1 °F 51.1 °F 72% 30.48 in 10.0 mi ESE 3.5 mph - N/A   Clear
7:56 PM 57.0 °F 51.1 °F 81% 30.48 in 10.0 mi SE 3.5 mph - N/A   Clear
8:56 PM 54.0 °F 50.0 °F 86% 30.48 in 10.0 mi Calm Calm - N/A   Clear
9:56 PM 53.1 °F 50.0 °F 89% 30.48 in 10.0 mi Calm Calm - N/A   Clear
10:56 PM 53.1 °F 50.0 °F 89% 30.47 in 6.0 mi Calm Calm - N/A   Clear
11:14 PM 51.8 °F 48.2 °F 88% 30.46 in 3.0 mi East 3.5 mph - N/A   Clear
11:19 PM - - N/A% - - North - - N/A   Unknown
11:56 PM 52.0 °F 48.9 °F 89% 30.46 in 6.0 mi Calm Calm - N/A   Clear